C/2017 T3 ( ATLAS )

Japanese version
Home page
Updated on April 13, 2018

---------------------------------------------------------------------

* Profile

Discovery Date October 14, 2017
Magnitude 18.3 mag
Discoverer Asteroid Terrestrial-impact Last Alert System (ATLAS) search program

* Pictures

* Orbital Elements

Epoch 2018 July 21.0 TT = JDT 2458320.5
T 2018 July 19.15078 TT                                 MPCW
q   0.8253484            (2000.0)            P               Q
z  +0.0007505      Peri.  246.88684     +0.22858597     -0.60007619
 +/-0.0000034      Node   230.08579     +0.65976524     -0.48353732
e   0.9993806      Incl.   88.10814     -0.71586192     -0.63725993
From 503 observations 2017 Sept. 11-2018 Mar. 22, mean residual 0".5.

* Finding Charts

* Magnitudes Graph

        m1 = 9.0 + 5 log d + 10.0 log r

---------------------------------------------------------------------

The orbital elements are published on M.P.E.C. 2018-F152.
The charts are made with StellaNavigator Ver.10 (AstroArts).
The magnitudes graphs are made with Comet for Windows.

---------------------------------------------------------------------

Copyright(C) Seiichi Yoshida (comet@aerith.net). All rights reserved.